This is the latest recevied weather packets stored in our database for station/object DM3DP. If no packets are shown the sender has not sent any weather packets the latest 10 day(s).
| Time | Temp. | Humidity | Pressure | Rain* | Wind** | Luminosity | Snow |
|---|---|---|---|---|---|---|---|
| 1777621621 | 16.11° C | 40% | 1024.9 hPa | 0 mm | - | 789 W/m² | - |
| 1777621291 | 15.56° C | 40% | 1024.8 hPa | 0 mm | - | 782 W/m² | - |
| 1777620962 | 15.56° C | 40% | 1024.8 hPa | 0 mm | - | 772 W/m² | - |
| 1777620632 | 15.56° C | 40% | 1024.9 hPa | 0 mm | - | 752 W/m² | - |
| 1777620301 | 15° C | 42% | 1024.9 hPa | 0 mm | - | 741 W/m² | - |
| 1777619971 | 15° C | 42% | 1024.9 hPa | 0 mm | - | 731 W/m² | - |
| 1777619641 | 15° C | 43% | 1024.9 hPa | 0 mm | - | 719 W/m² | - |
| 1777619311 | 15° C | 38% | 1024.9 hPa | 0 mm | - | 707 W/m² | - |
| 1777618982 | 15° C | 38% | 1024.9 hPa | 0 mm | - | 693 W/m² | - |
| 1777618651 | 14.44° C | 38% | 1024.9 hPa | 0 mm | - | 681 W/m² | - |
| 1777618321 | 14.44° C | 44% | 1024.9 hPa | 0 mm | - | 665 W/m² | - |
| 1777617992 | 14.44° C | 45% | 1024.9 hPa | 0 mm | - | 653 W/m² | - |
| 1777617661 | 14.44° C | 47% | 1024.9 hPa | 0 mm | - | 637 W/m² | - |
| 1777617332 | 13.89° C | 47% | 1024.9 hPa | 0 mm | - | 605 W/m² | - |
| 1777617002 | 13.89° C | 47% | 1024.9 hPa | 0 mm | - | 589 W/m² | - |
| 1777616672 | 13.89° C | 47% | 1024.9 hPa | 0 mm | - | 572 W/m² | - |
| 1777616341 | 13.89° C | 46% | 1024.9 hPa | 0 mm | - | 551 W/m² | - |
| 1777616012 | 13.33° C | 47% | 1024.9 hPa | 0 mm | - | 534 W/m² | - |
| 1777615681 | 13.33° C | 49% | 1024.9 hPa | 0 mm | - | 513 W/m² | - |
| 1777615352 | 13.33° C | 49% | 1024.9 hPa | 0 mm | - | 495 W/m² | - |
| 1777615021 | 13.33° C | 48% | 1024.9 hPa | 0 mm | - | 473 W/m² | - |
| 1777614691 | 13.33° C | 47% | 1024.9 hPa | 0 mm | - | 454 W/m² | - |
| 1777614361 | 13.33° C | 47% | 1024.9 hPa | 0 mm | - | 426 W/m² | - |
| 1777614031 | 13.89° C | 49% | 1024.8 hPa | 0 mm | - | 377 W/m² | - |
| 1777613702 | 12.78° C | 52% | 1024.8 hPa | 0 mm | - | 363 W/m² | - |
* Rain latest hour (hover to see other rain measurements)
** Current wind speed in m/s (hover to see current wind gust speed)